Regional Weather Roundup
Issued by NWS Green Bay, WI

Home | Current Version | Previous Version | Graphics & Text | Print | Product List | Glossary Off
Versions: 1 2 3 4 5 6 7 8 9 10 11 12 13 14 15 16 17 18 19 20 21 22 23 24 25 26 27 28 29 30 31 32 33 34 35 36 37 38 39 40 41 42 43 44 45 46 47 48 49 50

000
ASUS43 KGRB 042200
RWRGRB

NORTH-CENTRAL AND NORTHEAST WISCONSIN REGIONAL WEATHER ROUNDUP
NATIONAL WEATHER SERVICE GREEN BAY WI
500 PM CDT SAT JUL 04 2015

WIZ005-009-010>012-018-019-042300-
NORTH CENTRAL WISCONSIN

CITY           SKY/WX    TMP DP  RH WIND       PRES   REMARKS
IRONWOOD       PTSUNNY   77  55  47 NE6       29.92F
MANITOWISH WTR NOT AVBL
ARBOR VITAE    NOT AVBL
EAGLE RIVER    NOT AVBL
LAND O LAKES   NOT AVBL
RHINELANDER    PTSUNNY   80  53  39 NW5       29.99S
PHILLIPS       NOT AVBL
ANTIGO         NOT AVBL
TOMAHAWK       NOT AVBL
MERRILL        NOT AVBL
$$

WIZ013-073-042300-
NORTHEAST WISCONSIN

CITY           SKY/WX    TMP DP  RH WIND       PRES   REMARKS
IRON MOUNTAIN  MOSUNNY   79  58  48 S6        29.96F
MARINETTE      MOSUNNY   73  61  64 SE7       29.97S
$$

WIZ017-030-035>037-045-042300-
CENTRAL WISCONSIN

CITY           SKY/WX    TMP DP  RH WIND       PRES   REMARKS
MEDFORD        NOT AVBL
WAUSAU         MOSUNNY   82  55  39 SW8       29.96R HAZE
MOSINEE        NOT AVBL
MARSHFIELD     MOSUNNY   82  62  50 S6        29.96F HAZE
WISC RAPIDS    SUNNY     82  61  48 SW8       29.97F
STEVENS POINT  NOT AVBL
WAUPACA        NOT AVBL
SHAWANO        NOT AVBL
CLINTONVILLE   NOT AVBL
$$

WIZ038-039-048-051-042300-
FOX VALLEY

CITY           SKY/WX    TMP DP  RH WIND       PRES   REMARKS
NWS GREEN BAY  MOSUNNY   80  66  62 E8        29.97S
APPLETON       PTSUNNY   79  61  53 SW7       29.98S
OSHKOSH        MOSUNNY   81  64  56 S6        29.97S
FOND DU LAC    SUNNY     82  63  52 SW6       29.98S
$$

WIZ022-050-052-042300-
EAST CENTRAL WISCONSIN

CITY           SKY/WX    TMP DP  RH WIND       PRES   REMARKS
STURGEON BAY   MOSUNNY   72  59  64 SE7       30.01S
MANITOWOC      NOT AVBL
SHEBOYGAN      PTSUNNY   77  62  59 SE8       29.98S
$$

LMZ563-521-522-541>543-042300-
LAKESHORE

STATION/POSITION TIME  TEMP    WIND        PRES    VSBY  WAVE
                       AIR SEA DIR/SP/G                  HT/PER
                 (UTC) (F)     (DEG/KT/KT) (MB)    (MI)  (FT/S)
SHEBOYGAN LKSHOR 2100   64     160/ 11/ 11 1015.5R
KEWAUNEE LKSHORE 2100   63      40/  4/  6 1015.1R
NORTHPORT PIER   2100   64     140/  6/  7 1015.2F
N MID LAKE BUOY  2050   60 53  200/  4/  4 1015.6F         0
S GREEN BAY BUOY 2100   70 70   60/ 10/ 14 1016.3F
CHAMBERS ISLAND  2100   72      80/  5/  7 1015.2F
MENOMINEE LKSHOR 2100   71      80/  4/  5 1015.9F
$$


USA.gov is the U.S. government's official web portal to all federal, state and local government web resources and services.